Wind_Speed
49 49 49 50 49 47 46 46 45 44 45 44 44 43 42 41 40 39 39 38 37 37 36 36 36 36 36 36 37 38 38 39 40 41 41 41 42 43 45 46 47 46 45
49 48 48 50 51 50 49 48 48 47 47 47 47 46 45 44 43 42 42 41 40 40 39 39 38 38 39 39 39 40 41 41 42 43 44 43 43 44 45 47 47 46 45
51 50 49 49 49 50 50 50 49 48 48 48 48 47 47 47 46 45 45 44 43 43 42 42 41 41 41 41 41 42 43 43 44 44 46 46 46 46 45 45 45 45 45
53 52 51 50 49 50 50 50 50 50 50 50 49 48 48 48 48 47 47 46 45 45 44 43 43 42 43 43 43 44 44 45 45 46 46 48 49 49 47 45 43 43 43
52 53 53 52 51 50 50 50 50 50 51 51 51 50 49 49 49 48 48 47 47 46 45 44 44 44 44 44 44 45 45 46 47 47 47 48 49 49 48 46 44 43 43
48 50 52 52 51 50 50 49 49 49 50 50 50 49 49 49 49 49 49 49 48 47 46 46 46 46 46 45 45 46 46 47 47 48 48 48 48 47 46 45 44 43 43
45 46 48 50 50 50 49 49 49 49 49 48 48 48 48 48 48 49 49 48 48 47 47 47 47 47 47 46 47 47 47 48 48 48 48 48 47 46 45 44 44 43 42
42 44 45 47 47 47 48 49 49 48 48 48 48 48 48 48 48 48 48 48 48 48 48 48 47 47 47 47 47 47 47 48 48 48 48 47 46 45 44 44 43 42 42
38 40 42 44 45 46 47 48 48 48 48 47 47 48 48 48 48 48 48 48 48 48 48 48 48 48 48 47 48 48 48 48 48 47 46 46 44 43 43 43 43 42 41
34 36 38 40 42 43 45 46 47 48 48 48 48 48 48 48 49 49 48 48 48 48 48 48 47 47 47 48 48 48 48 47 46 46 45 44 42 42 42 42 41 41 40
33 34 36 37 39 41 43 44 45 47 48 48 49 49 50 50 50 50 50 50 50 49 49 48 48 48 47 47 47 46 46 45 45 44 43 42 41 41 40 40 40 39 39
34 35 36 37 38 40 41 43 45 46 47 48 48 49 49 50 50 51 51 51 50 50 49 49 48 47 46 46 46 45 45 44 43 42 41 40 40 39 38 38 38 37 37
33 34 35 36 38 39 40 42 43 44 45 46 47 48 48 49 49 49 49 48 48 48 48 47 47 46 45 45 44 43 43 41 41 40 39 38 38 37 37 36 36 36 36
32 33 34 36 37 38 39 40 41 42 43 44 45 46 46 46 47 46 46 46 46 45 45 45 44 44 43 43 41 40 39 38 38 37 36 36 35 35 34 34 34 34 34
31 32 33 33 34 36 37 38 39 40 41 42 42 43 44 44 44 44 44 43 43 42 42 42 41 41 40 40 38 38 36 36 35 34 34 34 33 33 32 32 33 33 33
30 31 32 32 33 34 35 36 37 38 39 40 40 41 41 41 41 41 41 41 41 40 40 39 39 38 38 37 36 35 34 33 33 32 31 31 31 31 31 31 32 32 33
30 31 32 32 33 33 34 35 36 37 37 38 38 38 39 39 39 38 37 37 37 37 37 36 36 36 35 35 34 33 31 31 30 30 29 29 29 30 30 31 32 32 32
30 30 31 32 33 33 34 35 35 36 36 36 36 37 37 37 36 36 35 35 35 34 35 34 34 34 33 32 31 30 29 29 29 28 28 28 28 29 30 30 31 31 32
30 30 31 31 32 32 33 33 34 34 35 35 34 34 34 34 34 34 33 33 32 32 32 32 32 31 30 29 29 28 28 27 27 27 28 28 29 29 30 30 31 32 32
28 28 29 29 30 31 31 32 32 32 32 32 32 32 32 32 31 31 31 31 30 30 30 30 29 29 28 28 27 27 27 27 28 28 28 29 29 30 31 31 32 33 33
26 26 27 28 28 28 28 29 29 30 29 28 28 29 29 29 29 29 29 29 28 28 28 28 28 27 27 27 27 27 28 28 29 29 29 30 30 31 32 33 34 34 35
24 24 25 25 26 27 27 27 27 27 27 27 27 27 27 28 28 28 27 27 27 27 27 26 27 27 27 27 27 28 29 29 30 30 31 31 32 33 34 35 35 36 37
23 23 24 24 24 25 26 26 25 25 25 26 26 26 26 26 26 26 26 26 26 26 26 26 27 27 27 27 28 29 29 30 31 32 32 33 34 35 36 36 37 38 38
23 23 23 23 23 24 24 24 24 24 24 24 25 25 25 25 25 25 25 25 25 25 26 26 27 28 28 29 30 30 31 32 32 33 34 34 35 36 37 37 38 39 39
22 23 23 23 23 23 24 23 23 23 23 23 23 24 24 25 25 25 26 26 26 26 26 27 28 28 29 30 31 32 32 33 34 35 36 36 37 38 38 39 39 40 41
23 23 23 23 22 22 23 23 23 23 23 23 23 24 24 24 25 25 25 26 27 27 28 29 30 30 31 32 33 34 34 35 36 37 38 38 39 39 40 40 40 41 42
Wind_Direction
232 232 232 233 234 237 239 241 242 243 244 244 245 247 250 253 256 260 263 267 270 273 275 277 279 281 282 284 285 287 288 289 291 292 294 296 298 300 301 302 302 301 300
233 234 235 235 237 238 240 243 245 246 246 246 246 248 251 253 257 260 264 267 270 273 275 277 278 280 281 283 284 285 287 288 290 292 293 295 296 298 300 300 300 299 298
233 234 236 237 238 240 241 243 246 247 247 247 248 250 252 255 258 260 263 266 269 272 274 276 277 279 280 282 283 284 286 288 289 291 293 294 296 297 298 297 297 296 296
232 234 236 238 240 240 242 244 245 247 247 248 250 252 253 255 258 261 263 266 268 270 272 274 276 277 279 281 282 284 285 287 289 290 292 294 296 297 298 296 295 294 294
234 234 236 237 239 240 242 244 245 246 248 249 251 253 254 256 258 260 262 264 266 268 270 272 273 276 278 280 281 283 285 287 289 290 292 293 295 296 296 296 295 295 294
235 236 235 236 238 240 242 243 245 246 247 248 251 252 254 255 257 259 261 263 265 267 268 270 272 275 277 279 281 283 285 287 289 290 292 293 294 294 295 295 295 295 294
237 238 238 237 238 239 240 242 243 245 247 249 251 253 254 256 258 259 261 263 265 266 268 270 273 275 277 279 281 283 285 287 288 290 291 292 293 293 293 294 295 295 294
239 240 239 238 239 239 240 242 244 245 247 249 251 253 255 256 258 259 261 263 265 267 269 271 273 274 277 279 281 282 284 286 287 289 291 291 291 291 292 293 294 295 294
241 242 243 242 241 241 242 244 245 246 247 249 251 253 254 256 258 260 262 264 265 267 269 271 272 274 277 278 280 282 284 285 287 288 289 289 290 290 291 292 293 294 294
241 242 244 245 244 244 244 246 247 248 249 250 251 253 254 256 258 260 262 263 265 267 269 270 272 274 276 278 280 282 284 285 286 287 288 288 289 290 291 292 293 294 294
244 244 244 245 246 247 247 248 248 249 250 251 252 253 255 257 258 260 262 264 265 267 269 271 272 274 276 278 280 282 283 284 285 286 286 287 289 290 291 292 293 294 295
248 248 248 248 248 248 249 250 251 251 252 253 254 255 256 258 260 261 263 265 266 267 269 270 272 274 276 278 279 281 282 283 284 284 286 287 288 290 291 292 293 294 296
250 250 251 251 251 251 251 251 251 252 254 255 256 257 258 259 261 262 264 265 267 268 270 271 272 274 275 277 278 279 280 281 282 283 284 286 287 289 291 292 294 295 296
253 253 252 253 253 253 254 254 254 254 255 256 256 258 259 260 261 262 264 265 266 268 269 270 272 273 274 275 276 278 278 279 281 282 284 285 287 289 291 293 295 296 297
256 255 254 255 255 255 255 255 255 255 256 257 257 259 260 261 261 262 263 265 266 266 267 269 270 271 273 273 274 275 276 278 280 281 283 284 287 289 291 294 295 297 298
258 257 256 256 256 257 257 257 257 257 258 258 258 259 260 260 261 262 262 263 264 265 266 267 268 269 270 271 272 273 274 276 278 280 282 285 288 290 292 294 296 298 298
257 257 256 256 256 257 258 257 257 258 258 259 259 259 259 260 260 261 262 263 264 265 265 265 267 267 268 269 270 271 272 275 277 280 283 285 288 291 293 295 296 298 298
259 259 258 257 257 258 258 258 258 258 259 260 260 260 260 260 261 261 262 263 263 264 264 264 265 265 266 266 267 269 271 274 277 280 283 286 289 292 294 296 297 297 298
260 259 259 259 258 258 258 259 259 260 260 261 261 261 261 261 261 261 261 261 262 263 263 263 263 264 263 264 266 268 271 274 277 281 284 287 291 293 295 296 297 298 298
259 259 258 258 257 257 258 259 259 260 260 261 261 260 260 260 260 260 260 260 261 261 261 261 262 262 262 263 265 268 272 275 279 282 286 289 291 293 295 296 297 298 299
258 257 257 256 256 257 258 258 259 259 259 260 260 259 260 260 259 259 259 259 259 259 259 260 260 260 262 264 267 271 274 278 281 285 287 290 291 293 295 296 297 298 298
258 258 257 256 255 256 257 258 257 257 257 258 259 259 259 259 258 258 258 258 258 259 259 259 260 261 264 266 270 273 277 280 283 285 288 290 292 293 295 296 296 297 298
257 258 258 257 256 256 256 256 255 256 256 256 257 257 258 258 257 257 257 257 259 259 260 261 262 264 266 269 273 276 279 282 284 286 289 291 292 293 295 296 296 296 297
256 257 257 257 257 256 256 254 254 254 255 257 257 256 258 258 258 257 258 259 261 261 262 263 265 267 269 272 275 278 281 284 286 288 290 291 292 293 295 296 296 296 297
256 256 257 257 257 256 255 252 252 254 255 256 258 258 258 259 259 259 260 261 262 264 265 266 268 270 272 275 278 280 282 284 286 288 290 291 292 293 294 295 296 296 297
256 256 256 256 255 255 254 252 252 254 255 257 258 259 259 259 261 263 265 265 265 266 267 269 271 273 275 277 279 281 283 285 287 288 289 291 292 293 294 295 295 296 297
Height
5787 5792 5797 5802 5806 5810 5814 5817 5820 5823 5826 5828 5830 5832 5835 5836 5838 5839 5840 5841 5842 5842 5842 5842 5841 5840 5840 5838 5837 5835 5833 5831 5829 5827 5825 5822 5819 5815 5811 5807 5803 5799 5795
5779 5784 5789 5794 5798 5802 5806 5809 5812 5815 5818 5820 5822 5825 5826 5828 5830 5832 5833 5833 5834 5834 5834 5834 5834 5833 5832 5831 5829 5827 5826 5824 5821 5818 5815 5814 5813 5808 5803 5798 5794 5790 5786
5771 5775 5780 5785 5789 5793 5797 5801 5804 5807 5809 5812 5814 5816 5818 5820 5822 5823 5824 5825 5826 5826 5826 5826 5825 5825 5824 5823 5821 5819 5817 5815 5813 5810 5807 5804 5803 5800 5797 5791 5786 5781 5776
5762 5767 5771 5776 5780 5784 5788 5792 5795 5798 5800 5803 5805 5808 5810 5812 5813 5815 5816 5817 5817 5818 5818 5817 5817 5816 5815 5814 5813 5811 5809 5807 5805 5802 5798 5795 5792 5789 5787 5784 5778 5773 5768
5753 5757 5762 5767 5771 5775 5779 5782 5786 5788 5791 5793 5796 5798 5800 5802 5804 5805 5807 5807 5808 5808 5809 5808 5808 5807 5806 5805 5804 5802 5800 5797 5795 5792 5789 5786 5782 5778 5775 5773 5769 5765 5760
5743 5748 5752 5757 5762 5766 5770 5773 5776 5779 5781 5784 5786 5788 5791 5793 5794 5796 5797 5798 5798 5799 5799 5799 5798 5798 5797 5796 5794 5792 5790 5788 5785 5782 5779 5776 5773 5769 5765 5762 5758 5755 5751
5735 5740 5744 5749 5753 5756 5759 5762 5765 5768 5771 5774 5776 5779 5781 5783 5784 5786 5787 5788 5788 5789 5789 5789 5788 5788 5787 5785 5784 5782 5780 5778 5775 5772 5769 5766 5762 5759 5755 5751 5748 5744 5741
5727 5731 5735 5739 5743 5746 5749 5753 5756 5759 5761 5764 5767 5769 5771 5772 5774 5775 5776 5777 5778 5778 5778 5778 5778 5777 5776 5775 5774 5772 5770 5767 5765 5762 5759 5755 5752 5748 5745 5741 5738 5734 5731
5720 5723 5727 5730 5734 5737 5740 5743 5746 5749 5751 5754 5756 5758 5760 5762 5763 5765 5766 5767 5767 5767 5767 5767 5767 5766 5766 5764 5763 5761 5759 5757 5754 5751 5748 5745 5742 5738 5735 5731 5727 5724 5721
5712 5715 5718 5721 5725 5728 5731 5733 5736 5739 5742 5744 5746 5748 5750 5751 5753 5754 5755 5756 5756 5756 5757 5756 5756 5756 5755 5754 5752 5750 5748 5746 5743 5741 5738 5735 5731 5728 5725 5721 5718 5714 5711
5705 5708 5710 5713 5716 5718 5721 5723 5726 5729 5731 5733 5735 5737 5739 5740 5742 5743 5744 5744 5745 5745 5745 5745 5745 5745 5744 5742 5741 5739 5737 5735 5732 5730 5727 5724 5721 5718 5715 5711 5708 5704 5701
5698 5700 5702 5705 5707 5709 5711 5714 5716 5718 5720 5722 5724 5726 5727 5729 5730 5731 5732 5733 5733 5734 5734 5734 5734 5733 5732 5731 5730 5728 5726 5724 5722 5720 5717 5714 5711 5708 5705 5702 5699 5695 5692
5690 5692 5694 5696 5698 5700 5702 5704 5706 5708 5710 5711 5713 5715 5716 5718 5719 5720 5721 5721 5722 5722 5723 5722 5722 5722 5721 5720 5719 5717 5715 5714 5712 5709 5707 5704 5702 5699 5696 5693 5690 5686 5683
5683 5684 5686 5687 5689 5691 5692 5694 5696 5697 5699 5700 5702 5704 5705 5707 5708 5709 5709 5710 5710 5711 5711 5711 5711 5710 5710 5709 5707 5706 5705 5703 5701 5699 5697 5695 5693 5690 5687 5684 5681 5678 5674
5675 5676 5677 5679 5680 5682 5683 5684 5686 5687 5689 5690 5691 5693 5694 5696 5697 5697 5698 5699 5699 5699 5700 5700 5699 5699 5699 5698 5697 5696 5695 5693 5692 5690 5688 5686 5684 5681 5678 5676 5672 5669 5666
5667 5668 5669 5670 5672 5673 5674 5676 5677 5678 5679 5680 5681 5682 5683 5685 5686 5686 5687 5688 5688 5688 5689 5689 5689 5688 5688 5688 5687 5686 5685 5684 5683 5681 5679 5677 5675 5673 5670 5667 5664 5661 5658
5658 5659 5661 5662 5663 5664 5666 5667 5667 5668 5669 5670 5671 5672 5673 5674 5675 5676 5677 5677 5678 5678 5678 5678 5678 5678 5678 5678 5677 5677 5676 5675 5674 5672 5671 5669 5667 5664 5661 5659 5656 5652 5649
5650 5651 5652 5654 5655 5656 5657 5658 5659 5659 5660 5661 5662 5662 5663 5664 5665 5666 5667 5667 5668 5668 5668 5669 5669 5669 5669 5669 5668 5668 5667 5667 5665 5664 5662 5660 5658 5655 5653 5650 5647 5644 5641
5642 5643 5644 5645 5646 5647 5648 5649 5650 5650 5651 5652 5652 5653 5654 5655 5656 5657 5657 5658 5659 5659 5659 5660 5660 5660 5660 5660 5660 5660 5659 5658 5657 5656 5654 5652 5649 5647 5644 5641 5638 5635 5632
5634 5635 5636 5637 5638 5639 5639 5640 5641 5642 5642 5643 5644 5644 5645 5646 5647 5648 5649 5649 5650 5651 5651 5651 5652 5652 5652 5652 5652 5652 5651 5650 5649 5647 5645 5643 5641 5638 5635 5632 5629 5626 5623
5627 5627 5628 5629 5630 5631 5631 5632 5633 5633 5634 5635 5636 5636 5637 5638 5639 5640 5641 5641 5642 5643 5643 5644 5644 5644 5645 5645 5644 5644 5643 5642 5640 5638 5636 5634 5632 5629 5626 5623 5620 5617 5613
5620 5620 5621 5621 5622 5623 5624 5624 5625 5626 5627 5628 5628 5629 5630 5631 5631 5632 5633 5634 5634 5635 5635 5636 5636 5637 5637 5637 5636 5635 5634 5633 5631 5629 5627 5625 5623 5620 5617 5614 5610 5607 5603
5613 5614 5614 5614 5615 5616 5616 5617 5618 5619 5620 5621 5621 5622 5623 5624 5624 5625 5626 5626 5627 5628 5628 5628 5629 5629 5629 5628 5628 5627 5625 5624 5622 5620 5618 5616 5613 5610 5607 5604 5600 5596 5593
5606 5607 5607 5608 5608 5609 5609 5610 5611 5612 5613 5614 5615 5615 5616 5617 5617 5618 5619 5619 5620 5620 5620 5621 5621 5621 5620 5620 5619 5618 5616 5615 5613 5611 5608 5606 5603 5600 5596 5593 5589 5585 5582
5599 5600 5600 5601 5601 5602 5603 5603 5604 5605 5606 5607 5608 5609 5609 5610 5611 5611 5612 5612 5613 5613 5613 5613 5613 5612 5612 5611 5610 5608 5607 5605 5603 5601 5598 5595 5592 5589 5585 5582 5578 5574 5570
5592 5593 5593 5594 5595 5595 5596 5597 5598 5599 5600 5601 5601 5602 5603 5603 5604 5604 5605 5605 5605 5605 5605 5605 5604 5604 5603 5602 5600 5599 5597 5595 5593 5590 5587 5584 5581 5578 5574 5571 5567 5563 5559